Location: Brno
(49.2000°N, 16.6330°E)
Time: 19:19:21
(UTC+01:00)

BREEZE M DEB (TANK) - Visible Passes

Search period start: 18 December 2014 00:00
Search period end: 28 December 2014 00:00
Orbit: 307 x 12169 km, 49.5° (Epoch: 16 December)

Date Brightness Start Highest point End Pass type
(mag) Time Alt. Az. Time Alt. Az. Time Alt. Az.
18 Dec 5.1 18:18:06 10° WNW 18:38:00 52° SW 18:42:25 18° SSE visible
19 Dec 5.2 17:43:32 10° WNW 18:07:14 62° SW 18:12:54 11° SE visible
20 Dec 5.2 17:08:17 10° WNW 17:36:16 71° SSW 17:42:37 10° SE visible
21 Dec 8.3 07:20:51 10° SSE 08:30:13 34° ESE 09:00:43 10° ENE visible
21 Dec 5.4 16:32:14 10° WNW 17:05:06 78° SSW 17:12:04 10° ESE visible
22 Dec 8.4 06:54:05 10° SSE 07:57:54 30° ESE 08:28:23 10° ENE visible
22 Dec 5.6 15:55:19 10° W 16:33:43 84° SSW 16:41:25 10° ESE visible
23 Dec 8.6 06:28:49 10° SE 07:25:52 26° ESE 07:55:35 10° ENE visible
23 Dec 6.3 19:59:15 10° WNW 20:04:00 13° W 20:07:08 10° WSW visible
24 Dec 8.8 06:05:25 10° SE 06:54:09 21° E 07:22:01 10° ENE visible
24 Dec 6.1 19:24:44 10° WNW 19:33:53 19° WSW 19:38:22 10° SSW visible
25 Dec 9.1 05:44:33 10° ESE 06:22:45 17° E 06:47:11 10° ENE visible
25 Dec 5.9 18:50:38 10° WNW 19:03:39 26° WSW 19:08:46 10° SSW visible
26 Dec 9.3 05:27:54 10° ESE 05:51:43 13° E 06:09:29 10° ENE visible
26 Dec 5.8 18:16:24 10° WNW 18:33:14 34° WSW 18:38:47 10° S visible
27 Dec 5.8 17:41:50 10° WNW 18:02:37 43° WSW 18:08:32 10° SSE visible
